sat.trackr.live / text

‹ back to catalog

STARLINK-5636

NORAD 55454 · 2023-015F

PAYLOAD ACTIVE UNKNOWN

§ Identity

Operator
Country
US
Launch date
2023-02-02
Launch site
AFETR
Launch vehicle
Mass (kg)
RCS (m²)

Purposes: comms

External: N2YO · Heavens-Above · Gunter

§ Orbital elements

Epoch: 2026-09-20T10:01:20.032608Z

Period
94.27 min
Inclination
43.0022°
Eccentricity
0.0001123
Mean motion
15.27572747 rev/d
Perigee alt
482.3 km
Apogee alt
483.8 km
Semi-major
6,861.2 km
B*
-6.9435e-6
RAAN
308.9565°
Arg perigee
279.5038°
Mean anomaly
80.5686°
Rev number
20,050

§ Raw data

STARLINK-56361 55454U 23015F   26263.41759297 -.00000453  00000+0 -69435-5 0  99922 55454  43.0022 308.9565 0001123 279.5038  80.5686 15.27572747200500

JSON: /api/v1/satellites/55454 · /tle

For live sub-satellite position, see the globe view (requires WebGL).

§ Visibility from observer

Set your observer location to see the next 7 days of passes ≥ 10°. The values pass through the URL so the page stays shareable.

No JS? Fill the form by hand. The geolocation button needs JavaScript.